Wetbulb
61.38 61.31 61.34 60.69 60.71 61.32 61.22 61.15 60.96 61.80 60.96 59.64 59.20 58.87 58.68 58.65 59.09 58.80 58.54 57.81 56.77 56.32 56.77 56.62 56.04 56.56 55.35 55.06 55.14 55.66 55.50 56.55 54.93 57.28 60.00 61.36 61.76 62.42 63.82 65.00 65.40 64.91 66.39
59.98 60.03 60.42 60.83 61.00 60.77 60.40 60.33 60.72 59.68 59.92 58.86 58.40 57.90 57.69 57.50 57.57 56.93 55.98 56.34 55.43 54.90 55.08 54.72 54.56 55.43 54.09 54.01 53.54 52.58 53.15 54.71 54.77 53.94 57.43 58.35 59.42 61.02 62.76 62.05 62.23 62.33 63.49
57.94 58.30 60.12 60.34 59.97 59.98 59.31 59.47 59.04 58.17 57.71 57.90 57.35 56.93 56.35 56.18 56.15 56.14 55.59 55.27 54.93 54.46 53.74 52.83 52.50 52.66 51.99 52.11 52.58 51.32 51.44 52.55 52.88 53.20 54.45 57.88 59.54 60.27 59.97 60.17 62.49 63.31 65.12
56.07 56.39 56.46 57.28 57.60 57.49 58.04 57.94 57.59 57.30 56.32 55.81 55.74 55.88 55.69 55.69 55.28 54.98 54.40 53.72 53.33 52.79 52.44 51.78 51.13 50.92 50.76 50.95 50.76 50.25 50.84 50.25 50.97 50.67 51.16 54.23 57.31 59.26 59.50 57.78 57.81 61.37 62.16
54.34 54.39 55.05 55.92 56.39 56.32 56.24 56.85 56.80 56.03 54.99 54.63 54.29 54.56 54.75 54.54 53.96 52.96 52.62 52.10 51.32 50.34 50.76 50.72 50.61 51.29 52.12 51.13 49.66 48.72 48.29 47.58 47.37 46.75 47.40 50.25 52.25 56.17 56.43 57.85 57.27 59.17 61.12
53.53 52.86 54.35 54.58 54.76 54.78 55.22 55.29 55.21 53.74 53.60 53.80 53.35 53.72 53.27 53.05 49.00 48.47 49.50 50.50 49.51 48.26 47.71 48.79 49.63 50.42 49.69 49.71 49.76 50.02 49.38 47.38 46.40 46.48 46.58 46.84 49.46 52.49 57.03 57.34 56.91 56.96 56.05
52.16 52.26 52.41 52.78 52.14 52.31 52.36 51.70 51.33 51.21 51.86 52.41 52.21 52.79 51.90 52.45 47.81 45.83 47.36 49.40 47.39 47.75 47.74 47.46 47.62 49.32 49.15 48.79 48.73 48.71 48.63 48.39 48.39 47.67 46.35 46.91 48.13 51.67 54.89 56.93 56.83 56.95 56.89
50.55 50.59 50.65 49.70 49.12 49.26 48.73 48.29 48.89 49.39 49.67 50.53 51.22 51.68 50.93 51.48 46.82 45.09 45.69 47.54 47.81 48.04 48.52 48.69 48.26 47.82 48.75 48.17 47.70 47.32 47.02 47.50 48.68 50.34 49.79 49.55 50.80 52.75 54.27 57.15 57.26 57.94 59.21
47.93 47.08 46.97 46.48 45.83 45.92 45.41 45.60 45.86 46.65 47.72 48.92 49.61 48.86 49.22 50.87 46.32 44.81 44.91 48.47 47.64 47.82 48.53 47.85 47.17 46.41 45.20 43.27 46.38 45.93 45.91 46.23 48.51 47.91 47.03 46.54 45.61 46.90 50.56 57.23 56.57 56.09 55.12
43.80 43.67 43.97 44.19 43.93 43.48 44.05 43.92 45.04 45.07 46.10 47.90 48.05 48.57 48.49 49.34 46.26 44.71 45.14 48.08 47.09 45.90 45.64 45.73 45.29 44.82 42.87 42.31 44.17 44.90 44.14 45.37 47.27 48.01 49.51 50.78 48.94 50.30 48.55 55.99 57.36 56.03 56.17
42.18 41.75 41.11 42.12 42.88 43.09 43.19 43.58 43.37 45.76 46.16 46.45 46.95 48.04 48.86 47.67 48.30 45.07 44.00 46.09 44.75 44.89 44.63 44.73 45.74 43.55 41.84 40.96 40.61 45.57 45.35 46.31 46.93 48.34 50.23 52.51 54.56 57.30 57.14 55.18 56.07 57.86 57.35
40.05 39.74 40.27 41.57 41.21 41.78 42.55 42.83 43.83 45.00 45.18 45.51 46.34 46.56 47.17 48.45 47.68 45.98 42.10 41.91 44.23 44.68 44.62 45.32 45.79 43.04 41.44 41.12 41.61 42.26 41.21 42.52 45.25 46.26 49.51 52.12 53.96 55.93 57.69 58.78 58.90 59.83 60.85
37.92 37.84 38.81 40.35 40.24 40.79 40.50 41.03 42.82 44.51 43.10 43.48 43.73 44.30 44.91 48.16 49.35 45.54 43.41 41.84 43.09 45.37 46.11 44.96 42.44 41.62 41.18 42.51 41.74 42.19 41.41 51.53 49.27 47.90 49.09 51.25 53.76 56.20 58.28 59.01 60.06 60.60 61.26
36.84 36.75 38.03 38.34 39.18 40.08 40.58 41.24 41.20 41.22 40.94 42.32 42.82 42.99 44.51 46.50 48.06 49.20 49.20 47.78 45.53 46.00 45.66 46.33 45.04 43.84 43.80 45.22 46.39 51.93 53.11 52.97 51.37 52.20 53.52 55.12 56.55 56.19 57.29 58.65 57.97 58.81 58.50
36.41 36.91 37.28 37.41 38.16 38.49 38.76 39.57 40.17 41.73 41.50 41.06 42.12 43.01 43.65 44.36 46.66 43.99 42.48 44.99 46.12 44.84 40.89 44.95 52.28 53.81 54.22 54.44 54.02 53.92 53.98 53.78 52.21 52.77 52.66 53.38 53.07 53.26 55.59 58.02 58.12 58.30 56.95
34.86 34.93 35.25 35.40 36.66 36.73 37.32 38.06 39.51 39.20 39.28 38.87 38.50 39.92 43.53 42.57 41.27 40.65 40.01 39.39 38.75 38.07 43.30 50.61 52.18 52.50 53.48 54.31 54.89 53.79 54.58 53.10 54.05 52.30 52.42 53.00 52.81 54.48 57.55 58.13 58.40 56.11 53.50
34.48 34.22 33.85 34.74 35.67 35.21 35.80 36.64 36.53 39.76 40.64 40.68 40.35 40.35 39.26 38.59 38.93 39.78 39.67 38.57 37.90 38.91 50.92 53.56 53.90 54.81 54.06 54.23 55.64 54.58 53.94 54.44 55.79 54.40 53.70 53.58 54.81 55.38 54.82 56.61 56.11 55.31 54.73
35.56 34.81 33.34 34.40 34.72 35.67 36.39 36.74 37.29 37.61 38.90 41.07 43.24 41.36 39.70 39.12 39.00 39.83 39.76 41.46 53.86 49.66 54.60 55.60 56.05 56.22 55.18 55.05 55.24 56.00 57.06 57.13 57.26 56.61 56.88 56.39 57.14 56.29 55.85 56.29 55.89 55.45 55.37
36.24 34.41 33.51 33.54 34.65 35.61 35.47 35.45 36.36 36.74 37.98 39.47 42.84 40.41 39.33 38.52 41.69 42.66 41.63 53.33 53.69 54.84 55.26 55.85 57.19 57.62 57.03 56.23 56.24 56.87 57.37 57.19 56.91 58.26 58.10 57.89 58.45 58.23 57.56 57.76 55.31 49.58 51.89
37.24 35.10 34.48 33.11 33.74 33.73 33.58 33.94 34.12 34.96 36.54 37.89 38.10 37.25 37.26 41.02 44.56 45.89 50.83 55.61 55.49 53.98 54.68 55.09 56.42 57.89 57.84 58.36 57.10 56.97 56.73 56.00 57.91 57.96 58.42 58.39 59.34 59.46 58.61 57.49 56.89 56.57 54.97
40.25 37.65 35.22 34.12 33.96 33.16 32.92 33.50 33.28 33.59 34.08 35.12 36.10 36.38 33.80 38.37 40.78 42.31 45.76 49.70 50.68 52.59 54.74 55.89 56.86 55.80 55.82 57.75 57.74 57.70 58.43 58.55 58.25 58.83 59.26 59.47 59.91 59.12 59.89 59.13 58.26 54.28 52.01
40.45 39.89 37.08 34.94 34.61 33.16 33.29 33.14 32.72 32.35 32.78 33.12 33.59 34.46 33.60 36.98 37.52 38.99 42.03 44.42 47.04 49.24 55.67 57.07 57.25 56.38 58.51 55.54 55.54 54.83 55.21 55.19 56.24 59.24 59.80 60.22 60.29 60.16 59.88 58.86 56.21 54.15 52.66
39.81 38.88 38.23 36.43 35.83 33.83 33.66 32.75 32.28 32.06 31.96 32.09 32.35 32.44 33.31 34.02 34.50 35.61 39.03 41.61 43.10 50.75 53.06 54.95 52.75 51.75 53.93 52.93 51.66 48.75 46.44 47.68 51.94 55.55 60.05 59.84 59.90 59.71 59.75 58.26 56.94 54.77 53.51
38.35 37.68 36.77 35.77 34.60 35.62 34.15 33.20 31.91 31.68 31.98 31.86 31.80 31.62 32.16 32.72 33.09 33.74 35.43 38.02 40.64 45.23 49.34 50.41 52.56 50.55 48.23 46.81 45.94 44.73 41.09 38.76 46.62 47.22 55.10 60.13 59.49 58.33 58.55 58.71 58.63 55.87 53.53
36.89 36.69 35.04 34.44 32.65 33.14 33.93 33.98 33.42 32.32 31.86 32.05 31.81 31.68 32.15 32.53 32.46 33.21 34.41 36.33 38.85 40.73 44.83 47.81 48.83 49.37 48.05 44.67 42.57 40.63 36.58 34.90 38.94 36.60 47.91 60.20 59.32 58.15 56.06 54.11 55.49 55.39 53.86
36.91 35.79 35.10 33.97 32.98 30.96 31.45 32.21 33.03 33.35 32.78 31.86 32.10 32.10 31.82 32.08 32.45 33.16 33.35 34.96 36.47 38.07 39.70 43.16 45.76 47.15 44.70 42.61 39.18 35.58 33.98 33.62 36.45 35.05 40.50 59.02 59.16 58.17 55.93 53.90 54.27 53.89 52.49
MSLP
1008.21 1008.57 1009.05 1009.42 1009.59 1009.91 1010.19 1010.31 1010.42 1010.50 1010.28 1010.19 1010.30 1010.32 1010.20 1010.05 1010.28 1010.27 1010.23 1010.06 1009.95 1009.82 1009.74 1009.48 1009.30 1009.16 1009.06 1008.83 1008.71 1008.22 1007.66 1007.03 1005.76 1004.94 1004.42 1003.82 1003.26 1002.98 1002.73 1002.58 1002.47 1002.72 1002.29
1008.54 1008.97 1009.36 1009.75 1010.06 1010.19 1010.20 1010.42 1010.31 1010.41 1010.35 1010.25 1009.83 1009.88 1009.55 1009.75 1009.74 1009.78 1009.55 1009.63 1009.26 1009.18 1009.06 1008.83 1008.64 1008.48 1008.47 1008.22 1008.07 1007.92 1007.57 1007.10 1006.44 1005.11 1004.58 1003.90 1003.60 1003.18 1002.59 1002.24 1002.22 1002.15 1001.98
1009.09 1009.39 1009.65 1009.88 1010.11 1010.20 1010.33 1010.27 1010.18 1010.08 1009.91 1009.77 1009.58 1009.53 1009.39 1009.50 1009.18 1009.19 1009.10 1008.84 1008.68 1008.69 1008.90 1008.64 1008.64 1008.68 1008.25 1007.97 1007.78 1007.53 1007.25 1006.86 1006.38 1005.73 1004.61 1004.01 1003.34 1002.64 1002.23 1001.80 1001.66 1001.44 1001.35
1009.43 1009.66 1009.83 1009.94 1010.11 1010.01 1010.00 1009.92 1009.89 1009.87 1009.86 1009.86 1009.80 1009.52 1009.46 1009.22 1009.07 1008.94 1008.73 1008.59 1008.63 1008.53 1008.44 1008.30 1008.28 1008.14 1007.85 1007.57 1007.29 1007.03 1006.69 1006.25 1006.05 1005.51 1004.73 1004.20 1003.09 1002.41 1001.99 1001.71 1001.41 1001.14 1001.11
1010.01 1010.10 1010.19 1010.20 1010.13 1010.08 1009.97 1009.83 1009.70 1009.76 1009.79 1009.74 1009.58 1009.31 1009.09 1009.02 1008.84 1008.75 1008.84 1008.79 1008.54 1008.18 1007.95 1007.93 1007.67 1007.32 1007.06 1006.82 1006.43 1006.23 1006.20 1005.94 1005.55 1005.21 1004.67 1004.21 1003.47 1002.41 1001.48 1001.13 1001.02 1000.70 1000.61
1010.63 1010.56 1010.35 1010.12 1010.02 1009.95 1009.80 1009.63 1009.59 1009.66 1009.67 1009.51 1009.29 1009.04 1009.02 1009.01 1008.82 1008.81 1008.73 1008.48 1008.29 1007.98 1007.69 1007.28 1006.79 1006.38 1006.01 1005.58 1005.29 1005.19 1005.25 1005.13 1004.82 1004.62 1004.13 1003.63 1003.09 1002.67 1001.82 1000.72 1000.61 1000.48 1000.62
1010.62 1010.66 1010.39 1010.45 1010.42 1010.30 1010.20 1010.13 1010.08 1009.99 1009.71 1009.33 1009.08 1008.89 1008.88 1008.79 1008.59 1008.48 1008.31 1008.16 1007.97 1007.44 1006.94 1006.31 1005.84 1005.25 1004.81 1004.45 1004.12 1003.96 1003.85 1003.80 1003.64 1003.57 1002.96 1002.66 1002.32 1001.85 1001.50 1000.82 1000.36 1000.17 1000.12
1011.05 1010.93 1011.02 1011.11 1011.00 1010.87 1010.77 1010.67 1010.51 1010.21 1009.74 1009.16 1008.84 1008.73 1008.61 1008.33 1008.25 1008.07 1007.81 1007.68 1007.12 1006.47 1005.99 1005.39 1004.84 1004.36 1003.90 1003.54 1003.21 1002.95 1002.70 1002.46 1002.21 1001.79 1001.46 1001.31 1001.00 1000.91 1000.73 1000.38 1000.03 999.82 999.81
1011.83 1011.98 1012.00 1011.93 1011.71 1011.46 1011.22 1011.00 1010.73 1010.37 1009.81 1009.18 1008.79 1008.51 1008.20 1007.94 1007.83 1007.51 1007.29 1006.79 1006.17 1005.57 1004.92 1004.46 1004.05 1003.48 1002.92 1002.70 1002.51 1001.96 1001.55 1001.02 1000.68 1000.40 1000.11 1000.05 999.89 1000.02 999.71 999.72 999.49 999.73 999.56
1013.00 1012.94 1012.84 1012.49 1012.13 1011.78 1011.45 1011.16 1010.84 1010.51 1009.70 1008.93 1008.47 1008.09 1007.90 1007.61 1007.29 1006.72 1006.36 1005.86 1005.31 1004.81 1004.42 1003.63 1002.91 1002.49 1001.98 1001.77 1001.58 1000.94 1000.48 999.70 999.14 998.78 998.57 998.20 998.00 998.04 998.26 998.54 998.77 999.03 999.12
1013.86 1013.63 1013.31 1012.80 1012.27 1011.92 1011.33 1011.07 1010.65 1009.91 1009.32 1008.88 1008.32 1007.83 1007.42 1007.27 1006.57 1005.77 1005.36 1005.26 1004.98 1004.52 1003.73 1002.79 1001.90 1001.38 1000.98 1000.60 1000.43 1000.18 999.15 998.33 998.02 997.74 997.15 996.66 996.33 996.05 996.36 997.22 997.53 998.00 998.26
1014.38 1013.94 1013.32 1012.71 1012.41 1011.84 1011.26 1010.86 1010.27 1009.64 1009.10 1008.48 1007.96 1007.43 1007.09 1006.46 1005.56 1004.91 1004.95 1004.83 1004.55 1004.06 1003.01 1002.18 1001.22 1000.22 999.83 999.43 999.15 998.34 997.74 997.37 996.85 996.29 995.78 995.32 995.17 995.05 995.21 995.67 996.04 996.73 997.21
1014.68 1014.08 1013.42 1012.75 1012.36 1011.92 1011.38 1010.71 1009.99 1009.49 1009.17 1008.52 1008.07 1007.46 1006.70 1005.79 1004.98 1004.65 1004.33 1004.03 1003.62 1003.31 1002.36 1001.38 1001.00 1000.01 998.86 998.23 997.51 997.04 996.53 995.69 994.79 994.40 994.24 994.12 993.96 993.95 994.26 994.76 995.20 995.79 996.53
1014.79 1014.21 1013.57 1012.96 1012.36 1011.79 1011.21 1010.73 1010.20 1009.74 1009.29 1008.81 1008.18 1007.47 1006.46 1005.49 1004.58 1004.09 1003.80 1003.46 1002.90 1002.69 1001.91 1001.11 1000.23 999.29 997.88 997.47 996.95 996.38 995.92 995.20 994.03 992.86 992.71 992.69 992.71 993.18 993.62 994.11 994.84 995.51 996.22
1015.03 1014.41 1013.80 1013.25 1012.52 1011.88 1011.40 1010.85 1010.23 1009.68 1009.39 1009.05 1008.30 1007.49 1006.53 1005.28 1004.32 1004.18 1003.99 1003.19 1002.99 1002.53 1002.31 1000.84 998.82 997.77 997.19 996.40 996.03 995.80 995.48 994.94 994.17 993.44 992.92 992.46 992.31 991.88 992.41 993.50 994.43 995.26 996.22
1015.30 1014.73 1014.21 1013.55 1012.82 1012.23 1011.54 1010.62 1010.02 1009.63 1008.94 1008.23 1007.58 1007.19 1006.06 1005.40 1004.28 1003.85 1002.92 1002.75 1002.56 1002.09 1001.69 1000.24 998.51 997.45 996.49 995.48 994.92 994.97 994.97 994.57 994.31 994.02 993.59 992.93 992.61 991.17 991.23 992.99 994.28 995.42 996.57
1015.70 1015.03 1014.47 1013.83 1013.24 1012.81 1012.12 1011.35 1010.18 1008.82 1008.27 1007.41 1006.79 1006.27 1006.07 1005.69 1004.34 1002.88 1002.62 1002.32 1001.70 1001.35 1000.18 999.29 997.72 996.64 995.95 995.35 995.34 994.84 994.36 994.11 993.81 993.74 994.01 993.69 992.66 992.19 992.33 993.51 994.74 996.07 997.17
1015.80 1015.46 1014.89 1014.33 1013.90 1013.22 1012.46 1011.66 1010.97 1010.17 1009.12 1007.85 1006.78 1006.50 1005.99 1005.06 1003.95 1002.58 1001.25 1001.52 1000.77 1000.71 1000.06 998.76 997.57 996.43 995.49 995.91 996.29 995.20 994.25 993.78 993.35 993.40 993.59 993.84 993.62 993.83 994.30 994.87 995.91 996.97 997.78
1015.92 1015.76 1015.32 1014.88 1014.39 1013.72 1012.95 1012.25 1011.61 1010.88 1010.05 1009.07 1007.79 1006.71 1006.28 1005.29 1003.77 1002.73 1001.56 1001.69 1001.38 1000.55 999.77 998.49 997.52 995.85 995.44 995.16 995.23 995.22 995.16 994.37 993.98 993.75 993.83 994.19 994.52 994.65 995.40 996.21 997.04 997.79 998.46
1015.73 1016.06 1015.81 1015.33 1014.77 1014.17 1013.55 1012.80 1012.15 1011.53 1010.92 1010.14 1009.41 1008.92 1007.70 1006.03 1004.78 1004.12 1003.24 1002.35 1001.71 1000.87 1000.42 999.54 998.18 996.84 996.49 995.60 995.60 995.44 994.70 994.51 994.79 994.13 994.51 994.61 994.94 995.36 996.03 996.75 997.52 998.41 999.56
1014.84 1015.72 1016.09 1015.71 1015.28 1014.89 1014.43 1013.73 1013.13 1012.50 1012.03 1011.34 1010.63 1010.16 1009.57 1008.11 1006.92 1006.03 1004.71 1003.91 1002.99 1001.94 1001.14 999.73 999.21 998.06 997.95 997.80 996.92 996.87 996.44 995.61 995.25 995.23 995.16 995.25 995.62 996.20 996.75 997.32 997.99 999.20 1000.13
1014.82 1015.13 1015.79 1016.12 1015.96 1015.62 1015.17 1014.66 1014.08 1013.43 1012.90 1012.25 1011.59 1010.80 1010.15 1009.17 1008.30 1007.79 1006.57 1005.21 1004.30 1003.60 1002.01 1000.35 999.44 998.77 999.02 998.70 998.22 997.93 997.68 997.16 996.77 996.29 996.06 996.06 996.27 996.72 997.38 998.09 998.94 999.69 1000.53
1015.45 1015.54 1015.66 1016.02 1016.32 1016.24 1015.81 1015.34 1014.79 1014.34 1013.84 1013.22 1012.54 1011.87 1011.19 1010.60 1009.82 1009.08 1008.14 1007.23 1006.17 1004.79 1003.80 1002.47 1001.66 1001.03 1000.71 1000.81 1000.68 1000.65 1000.33 999.90 998.68 998.04 997.41 997.26 997.40 997.73 998.24 998.85 999.51 1000.29 1001.05
1016.35 1016.32 1016.52 1016.59 1016.83 1016.37 1016.36 1016.02 1015.65 1015.16 1014.62 1014.07 1013.50 1012.97 1012.43 1011.87 1011.14 1010.11 1009.39 1008.70 1007.68 1006.64 1004.63 1003.96 1003.21 1002.86 1002.76 1002.68 1002.59 1002.43 1002.46 1001.87 1000.50 999.66 998.87 998.28 998.58 998.98 999.28 999.69 1000.06 1000.69 1001.49
1017.32 1017.19 1017.54 1017.49 1017.61 1017.14 1016.81 1016.26 1016.09 1015.85 1015.33 1014.84 1014.41 1013.94 1013.54 1013.07 1012.44 1011.61 1011.24 1010.55 1009.05 1007.75 1006.67 1005.68 1005.10 1004.56 1004.69 1004.55 1004.32 1004.01 1003.63 1002.74 1002.05 1001.33 1000.47 999.29 999.50 999.86 1000.25 1000.64 1000.97 1001.46 1002.08
1018.05 1018.13 1018.17 1018.25 1018.10 1017.98 1017.77 1017.19 1016.76 1016.40 1015.92 1015.60 1015.22 1014.82 1014.41 1013.84 1013.34 1012.96 1012.25 1011.19 1010.20 1009.36 1008.41 1007.46 1006.50 1006.00 1006.09 1005.71 1005.78 1005.30 1004.63 1004.01 1003.23 1002.21 1001.36 1000.38 1000.26 1000.67 1001.07 1001.39 1001.60 1001.98 1002.48
Wind_Speed
5 5 4 4 4 4 3 4 4 5 5 6 7 8 8 8 8 8 8 10 11 11 11 11 12 10 9 9 9 10 11 12 16 11 11 10 6 7 6 4 4 5 4
4 4 3 2 2 3 4 5 5 6 6 7 7 9 9 10 8 9 11 11 12 12 11 12 13 10 11 10 9 11 12 12 13 19 13 12 13 11 8 5 5 8 7
5 4 3 3 4 4 5 6 6 8 8 9 9 10 10 11 11 9 11 11 10 8 10 11 12 13 12 10 10 10 10 11 12 13 13 11 11 10 12 6 6 5 5
7 7 6 6 7 7 7 7 7 7 9 10 10 11 12 11 10 9 10 11 10 10 11 13 14 15 15 13 11 12 11 11 11 12 12 12 11 10 6 5 6 4 4
7 7 6 6 7 7 7 7 6 6 8 10 11 11 10 9 9 9 11 10 12 13 13 14 16 18 23 22 13 13 15 14 13 12 13 11 11 11 10 7 5 5 3
6 8 8 9 10 9 9 9 7 8 9 10 10 10 8 8 12 13 10 12 13 13 15 16 16 20 20 24 22 24 20 16 16 13 12 13 15 13 13 5 5 3 3
9 10 10 10 11 10 10 11 10 10 11 11 10 9 9 11 11 11 16 13 10 13 16 16 15 13 16 17 18 21 22 22 23 18 19 17 17 15 13 12 6 3 4
11 12 12 13 12 12 11 11 11 11 12 10 8 10 11 10 10 14 16 11 12 16 16 15 15 16 15 16 16 16 17 16 17 14 16 17 17 17 17 12 10 5 4
12 12 13 13 13 12 12 11 11 11 12 10 9 13 13 11 14 17 11 12 12 15 13 13 15 17 20 19 16 16 17 17 17 21 20 23 23 23 21 10 9 6 8
13 13 13 12 12 12 11 11 10 11 12 10 11 12 13 13 16 17 15 9 12 9 13 16 21 19 23 23 17 14 15 16 16 14 15 16 21 19 18 13 8 8 8
12 13 13 12 12 11 12 10 11 11 11 11 12 12 11 13 16 18 15 9 7 9 11 12 13 19 18 17 14 13 18 17 17 13 14 12 11 10 11 11 12 10 10
12 13 12 11 10 10 11 10 12 10 11 10 10 10 9 13 16 10 4 10 11 9 13 12 14 19 17 17 13 20 24 20 12 12 12 11 9 8 9 10 11 12 10
11 11 12 11 9 10 10 11 9 8 8 8 8 8 9 10 9 6 10 11 12 9 10 16 22 25 20 14 16 15 13 5 6 9 9 9 11 10 9 8 10 11 10
11 11 10 10 11 9 8 7 8 7 7 8 8 9 10 10 10 7 7 9 11 11 13 11 16 18 20 13 9 7 4 5 7 4 6 3 4 3 6 7 7 9 9
10 10 9 9 10 9 8 8 8 8 8 9 9 9 11 12 11 10 12 9 10 10 12 9 9 7 8 7 7 6 5 4 5 7 5 5 4 7 9 10 8 9 8
10 7 8 8 8 8 9 10 9 11 15 16 17 15 11 16 23 22 18 16 14 10 2 8 10 7 6 6 4 2 4 1 1 2 5 8 5 4 12 12 11 11 11
7 11 8 8 8 8 8 8 11 12 13 14 13 12 8 16 22 21 17 14 16 8 6 7 8 6 3 5 6 3 1 1 2 3 5 2 6 9 12 13 12 12 11
7 17 8 7 8 8 8 8 8 9 10 11 11 13 20 24 22 18 15 9 6 1 6 10 9 6 5 8 9 8 3 3 1 3 2 1 3 7 11 9 9 10 11
5 9 9 8 7 9 8 9 8 9 8 9 10 15 21 26 19 7 13 4 8 8 9 13 12 6 5 3 7 2 5 7 6 4 5 4 4 5 8 9 10 11 11
6 12 11 8 8 9 9 9 10 10 10 9 9 12 14 14 13 13 13 6 7 9 11 13 12 10 12 11 9 2 5 4 4 4 6 7 6 8 9 10 10 10 8
5 6 10 9 8 9 9 9 10 9 10 9 10 11 17 11 12 12 12 11 12 14 14 14 10 7 9 10 11 10 8 7 9 11 8 8 7 10 8 9 9 10 10
7 7 8 8 8 10 9 9 10 10 11 11 11 12 19 11 12 13 13 14 15 14 12 11 3 6 4 10 12 12 13 14 13 11 10 10 10 8 9 10 9 9 9
9 10 9 9 7 8 9 10 10 10 11 11 11 12 13 11 12 14 14 13 14 12 13 12 13 13 14 13 12 12 13 12 12 11 9 10 10 8 7 9 9 8 8
10 10 11 10 10 9 8 8 10 12 12 11 12 12 12 12 12 16 14 14 15 14 13 15 14 19 17 16 14 14 14 14 12 12 14 9 8 10 8 7 6 9 8
10 10 11 10 11 10 11 9 9 8 11 11 11 11 11 11 12 13 11 11 13 15 16 14 13 19 20 23 24 24 22 23 17 16 10 7 11 11 9 6 6 7 8
9 10 8 7 9 11 10 11 11 11 9 10 10 10 11 11 11 10 12 14 13 14 18 14 18 21 23 19 23 22 23 23 20 22 12 6 8 7 6 5 3 6 5
Wind_Direction
95 86 78 33 6 350 334 304 287 290 307 305 299 294 290 290 278 273 276 280 274 273 271 271 275 275 278 280 284 288 285 288 288 285 288 293 280 268 278 285 299 285 255
90 71 41 13 318 308 315 302 301 291 284 282 288 285 290 290 287 281 280 273 271 273 277 275 277 274 270 271 271 276 282 295 293 291 287 280 273 289 275 245 257 280 266
31 11 15 355 318 302 292 294 307 303 297 293 295 297 296 289 289 283 277 277 286 305 307 304 304 303 295 292 284 281 281 282 291 298 296 290 286 274 263 270 258 246 247
5 354 348 343 326 317 304 295 287 300 315 313 301 298 288 284 286 296 305 300 303 305 309 300 291 285 283 286 283 282 280 279 283 285 287 301 281 260 268 259 263 248 223
347 333 320 311 300 297 295 293 299 308 302 296 292 286 291 297 293 308 309 300 296 295 295 292 285 278 281 278 274 273 273 275 272 277 282 286 291 286 245 241 258 251 241
334 317 318 323 317 314 312 310 320 321 304 291 287 287 305 303 305 294 302 306 303 298 289 284 283 282 278 273 268 260 256 260 265 266 267 266 271 276 288 253 242 224 249
335 324 328 330 322 329 330 326 327 318 307 295 291 293 294 284 286 307 303 297 284 282 284 283 281 273 278 276 270 265 258 254 255 259 260 257 262 263 272 284 269 250 257
334 335 339 333 327 327 329 321 316 307 303 298 299 299 289 287 292 288 285 281 277 282 280 281 282 286 283 278 275 267 265 264 265 256 247 249 249 252 249 257 262 253 278
342 342 337 332 323 321 314 312 306 308 304 304 302 293 292 297 299 290 277 284 283 281 283 290 290 287 280 276 276 270 267 264 262 255 251 255 252 252 242 244 242 240 256
345 335 327 321 318 313 310 307 305 290 287 292 296 294 299 296 297 282 277 281 281 292 287 283 279 274 274 270 267 268 267 268 263 263 263 252 246 235 216 214 219 225 232
334 329 324 316 316 307 302 295 290 294 301 299 293 292 294 299 284 274 273 284 274 288 290 287 283 277 269 266 242 259 257 266 270 269 261 266 259 222 212 207 210 212 224
334 325 317 323 323 314 311 312 297 296 291 292 298 299 300 285 283 291 264 242 271 281 288 288 287 279 271 269 266 258 258 256 255 245 241 241 249 244 219 205 202 209 208
327 327 321 323 320 318 313 302 308 320 321 310 302 300 297 296 300 264 276 277 285 294 286 282 286 285 284 275 266 286 281 288 250 226 226 232 231 232 214 210 214 193 187
329 325 326 327 326 315 321 320 321 318 308 304 304 304 300 297 297 302 316 314 305 305 300 302 295 269 265 261 290 288 275 299 310 337 190 189 126 146 205 182 179 178 167
332 329 335 333 325 335 325 319 311 300 293 298 294 290 295 295 291 304 300 300 307 300 321 288 277 300 289 261 246 249 250 266 339 14 6 37 3 328 216 179 173 155 127
352 336 337 329 335 334 330 324 299 282 289 283 266 256 273 264 286 290 287 301 303 295 217 264 292 291 248 290 248 189 264 192 182 351 32 42 328 318 125 139 138 120 118
349 343 336 342 345 339 330 327 326 333 323 302 309 330 350 280 294 292 292 290 275 265 279 307 312 250 321 341 10 27 140 229 250 128 126 85 296 53 71 95 106 114 116
3 2 345 344 346 337 337 340 341 339 339 340 343 359 350 340 323 304 302 317 331 221 296 307 313 294 317 84 36 329 307 349 31 138 164 112 41 90 93 77 88 109 117
29 14 356 354 349 352 351 348 346 350 349 346 349 351 353 337 324 335 315 23 310 316 333 324 332 316 340 115 151 291 41 327 347 36 101 111 104 87 88 101 103 102 93
83 36 14 2 3 4 358 356 357 358 358 3 -0 1 346 348 1 359 347 335 347 340 342 337 335 16 14 356 43 189 341 52 94 81 108 119 98 98 97 104 112 113 89
95 76 30 14 12 10 8 2 2 358 1 2 360 3 352 350 355 358 354 7 358 354 338 322 330 21 8 33 29 27 38 14 47 60 57 66 106 106 108 119 119 97 109
23 46 64 27 11 10 9 12 10 5 3 4 3 0 2 6 3 6 352 1 357 340 336 340 281 86 33 31 35 10 9 19 17 40 49 55 69 83 86 89 100 106 114
20 30 26 46 26 19 12 20 14 9 9 7 7 5 9 7 1 1 358 358 345 351 352 16 26 31 28 29 31 28 19 360 359 10 56 55 52 49 83 97 104 106 108
24 31 23 32 18 14 28 15 21 10 10 11 13 11 7 5 3 357 359 359 351 343 4 17 22 36 26 25 21 18 10 355 358 353 -0 61 61 59 48 69 99 111 124
30 29 36 16 30 8 11 12 26 17 13 10 13 10 8 7 4 360 1 354 349 358 2 4 15 25 30 24 18 13 3 2 3 350 354 61 77 67 74 55 66 101 118
38 31 43 32 27 23 18 1 16 6 20 12 9 11 8 6 4 6 359 356 -0 1 360 359 7 15 18 19 15 8 4 355 354 346 338 14 76 87 79 83 100 76 75